OK4PZ-5 Weather Reports


Display with metric or nautical units.
time (UTC)temp
F
wind
direction
speed
MPH
gust
MPH
rain 1hr
in
rain 24hr
in
rain mn
in
humidity
%
barometer
mb
20260503231502 56 23 1.0 2.0 0.00 0.00 0.00 58 1015.0
20260503230002 57 38 0.0 2.0 0.00 0.00 0.00 56 1015.0
20260503224502 58 124 1.0 2.0 0.00 0.00 0.00 53 1015.0
20260503223002 59 83 0.0 1.0 0.00 0.00 0.00 52 1015.0
20260503221502 60 127 4.0 7.0 0.00 0.00 0.00 50 1015.0
20260503220003 60 54 1.0 6.0 0.00 0.00 0.00 50 1015.0
20260503214502 60 94 2.0 3.0 0.00 0.00 0.00 50 1015.0
20260503213004 61 86 1.0 1.0 0.00 0.00 0.00 50 1016.0
20260503211502 61 103 2.0 4.0 0.00 0.00 0.00 49 1016.0
20260503210002 62 111 4.0 6.0 0.00 0.00 0.00 48 1016.0
20260503204502 62 121 4.0 6.0 0.00 0.00 0.00 48 1016.0
20260503203002 62 110 2.0 8.0 0.00 0.00 0.00 47 1016.0
20260503201502 63 129 2.0 4.0 0.00 0.00 0.00 47 1016.0
20260503200003 63 105 4.0 6.0 0.00 0.00 0.00 47 1016.0
20260503194502 63 160 2.0 3.0 0.00 0.00 0.00 47 1016.0
20260503193002 64 121 0.0 1.0 0.00 0.00 0.00 46 1016.0
20260503191502 65 115 0.0 1.0 0.00 0.00 0.00 45 1016.0
20260503190003 65 115 0.0 2.0 0.00 0.00 0.00 45 1016.0
20260503184503 66 79 1.0 3.0 0.00 0.00 0.00 45 1016.0
20260503183002 67 104 4.0 8.0 0.00 0.00 0.00 43 1016.0
20260503181503 67 83 2.0 4.0 0.00 0.00 0.00 43 1016.0
20260503180002 68 133 1.0 3.0 0.00 0.00 0.00 42 1016.0
20260503174502 69 97 3.0 9.0 0.00 0.00 0.00 39 1016.0
20260503173002 70 128 2.0 9.0 0.00 0.00 0.00 39 1015.0
20260503171502 71 108 6.0 7.0 0.00 0.00 0.00 37 1015.0
20260503081502 67 156 0.0 2.0 0.00 0.00 0.00 43 1019.0
20260503071502 65 126 1.0 2.0 0.00 0.00 0.00 43 1020.0
20260503054502 55 31 1.0 3.0 0.00 0.00 0.00 58 1019.0
20260503053003 50 0 0.0 0.0 0.00 0.00 0.00 74 1019.0
20260503051503 45 20 0.0 1.0 0.00 0.00 0.00 82 1020.0
20260503050002 42 22 0.0 0.0 0.00 0.00 0.00 87 1019.0
20260503044502 40 22 0.0 0.0 0.00 0.00 0.00 88 1019.0
20260503043002 39 22 0.0 0.0 0.00 0.00 0.00 90 1019.0
20260503041501 38 22 0.0 0.0 0.00 0.00 0.00 91 1019.0
20260503040002 37 22 0.0 0.0 0.00 0.00 0.00 93 1019.0
20260503034502 37 22 0.0 0.0 0.00 0.00 0.00 93 1019.0
20260503033002 37 23 0.0 1.0 0.00 0.00 0.00 93 1019.0
20260503031502 38 23 0.0 1.0 0.00 0.00 0.00 92 1019.0
20260503030003 38 22 0.0 0.0 0.00 0.00 0.00 93 1019.0
20260503024502 38 23 0.0 1.0 0.00 0.00 0.00 91 1019.0
20260503023002 39 22 0.0 0.0 0.00 0.00 0.00 89 1019.0
20260503021502 39 22 0.0 0.0 0.00 0.00 0.00 90 1019.0
20260503020002 38 23 0.0 1.0 0.00 0.00 0.00 91 1020.0
20260503014502 39 21 1.0 1.0 0.00 0.00 0.00 90 1020.0
20260503013002 40 328 0.0 0.0 0.00 0.00 0.00 89 1020.0
20260503011502 40 328 0.0 0.0 0.00 0.00 0.00 89 1020.0
20260503010002 40 329 0.0 0.0 0.00 0.00 0.00 90 1020.0
20260503004503 41 329 1.0 1.0 0.00 0.00 0.00 88 1020.0
20260503003001 41 327 0.0 0.0 0.00 0.00 0.00 88 1020.0
20260503001502 41 326 0.0 0.0 0.00 0.00 0.00 87 1020.0
20260503000002 42 326 0.0 0.0 0.00 0.00 0.00 88 1020.0
20260502234502 43 327 0.0 0.0 0.00 0.00 0.00 86 1020.0
20260502233002 42 327 0.0 0.0 0.00 0.00 0.00 86 1020.0